Location: Byszew
(52.1813°N, 19.2693°E)
Time: 00:05:14
(UTC+00:00)

Cosmos 2322 Rocket - Pass Details

Date: 28 June 2021
Orbit: 833 x 850 km, 71.0° (Epoch: 29 July)

Event Time Altitude Azimuth Distance (km) Brightness Sun altitude
Rises 00:20:15 0° 327° (NNW) 3,425 5.9 -11.8°
Reaches altitude 10° 00:23:23 10° 344° (NNW) 2,484 5.5 -11.6°
Maximum altitude 00:27:35 21° 32° (NNE) 1,845 5.1 -11.4°
Drops below altitude 10° 00:31:44 10° 79° (E) 2,469 5.1 -11.1°
Sets 00:34:50 0° 96° (E) 3,398 5.6 -10.9°
